Location: Unspecified
(50.7374°N, 0.0000°E)
Time: 16:53:04
(UTC+00:00)

AO-27 - Visible Passes

Search period start: 04 April 2026 00:00
Search period end: 14 April 2026 00:00
Orbit: 783 x 794 km, 98.7° (Epoch: 29 March)

Date Brightness Start Highest point End Pass type
(mag) Time Alt. Az. Time Alt. Az. Time Alt. Az.
4 Apr 9.6 19:10:50 10° ENE 19:13:07 13° NE 19:15:24 10° NNE visible
4 Apr 7.7 20:49:50 40° SE 20:51:34 62° ENE 20:56:44 10° N visible
4 Apr 9.4 22:30:30 22° WSW 22:31:26 23° W 22:35:31 10° NW visible
5 Apr 8.4 20:19:25 24° ESE 20:21:47 37° ENE 20:26:33 10° N visible
5 Apr 8.7 22:00:06 34° SW 22:01:13 38° W 22:06:06 10° NNW visible
6 Apr 9.0 19:49:00 14° E 19:52:08 23° ENE 19:56:11 10° N visible
6 Apr 7.8 21:29:41 46° SSW 21:31:08 67° WSW 21:36:21 10° NNW visible
6 Apr 10.2 23:10:34 10° W 23:11:36 11° W 23:12:37 10° WNW visible
7 Apr 9.5 19:19:44 10° E 19:22:35 15° NE 19:25:26 10° NNE visible
7 Apr 7.6 20:59:17 40° SE 21:01:11 73° ENE 21:06:24 10° NNW visible
7 Apr 9.6 22:39:58 18° WSW 22:41:11 19° W 22:44:52 10° NW visible
8 Apr 8.2 20:28:53 26° ESE 20:31:21 43° ENE 20:36:17 10° N visible
8 Apr 8.9 22:09:33 28° SW 22:10:55 32° W 22:15:36 10° NNW visible
9 Apr 8.8 19:58:28 15° ESE 20:01:39 27° ENE 20:05:58 10° N visible
9 Apr 8.1 21:39:09 39° SSW 21:40:47 56° W 21:45:57 10° NNW visible
10 Apr 9.4 19:28:46 10° E 19:32:05 17° NE 19:35:23 10° NNE visible
10 Apr 7.6 21:08:44 38° SSE 21:10:48 86° ENE 21:16:04 10° NNW visible
10 Apr 9.8 22:49:25 14° WSW 22:50:56 16° W 22:54:07 10° NW visible
11 Apr 8.0 20:38:20 27° SE 20:40:56 51° ENE 20:45:59 10° N visible
11 Apr 9.2 22:19:01 23° WSW 22:20:38 27° W 22:25:05 10° NW visible
12 Apr 8.6 20:07:56 16° ESE 20:11:11 31° ENE 20:15:45 10° N visible
12 Apr 8.4 21:48:37 33° SSW 21:50:27 47° W 21:55:31 10° NNW visible
13 Apr 9.2 19:37:53 10° E 19:41:34 20° NE 19:45:16 10° N visible
13 Apr 7.7 21:18:13 36° S 21:20:25 81° WSW 21:25:41 10° NNW visible
13 Apr 10.0 22:58:54 11° WSW 23:00:43 13° W 23:03:12 10° WNW visible
